IRIDIUM 137 (43076 NORAD) Tracking and Keplerian Element Data

This shows tracking and keplerian element data for the satellite.

Feedback or suggestion? Click here.




ElementValue
Catalog43076
NameIRIDIUM 137
Epoch Orbit41851
Epoch Day354.18263076
Epoch Year2025
RAAN36.9689
Inclination86.3964
Eccentricity0.0002576
Argument of Perigee85.2212
Mean Anonmoly274.9278
Mean Motion14.34218303
Decay Rate1.23E-06
L11 43076U 17083G 25354.18263076 .00000123 00000+0 36693-4 0 9997
L22 43076 86.3964 36.9689 0002576 85.2212 274.9278 14.34218303418516



Live tracking and technical data element details for IRIDIUM 137 (NORAD 43076). IRIDIUM 137 can be tracked NOW for your location showing map with azimuth and elevation plus other details from your city location.







IsCatalogInMostPopularTable: catalog: 43076, numindb: 880
Update: records affected: 1



GetName: 43076 IRIDIUM 137

Hit Count: updated at: Thu, 16 Apr 2026 05:10:53 GMT